[[{"header":{"parameterUnit":"m.s-1","parameterCategory":1,"la1":30.2991,"la2":30.254,"lo1":-89.0895,"lo2":-89.0444,"dy":0.0017,"dx":0.0017,"nx":28,"ny":28,"refTime":"2024-10-16T21:00:00:Z","depth":0,"parameterNumber":2,"parameterNumberName":"U-component_of_WINDS"},"data":[0,0,0,0,0,0,0,0,0,0,0,0,0,0,0,0,0,0,0,0,0,0,0,0,0,0,0,0,0,0,0,0,0,0,0,0,0,0,0,0,0,0,0,0,0,0,0,0,0,0,0,0,0,0,0,0,0,0,-5.8273,-5.8274,0,-5.8318,-5.8318,-5.8319,-5.8204,-5.8201,-5.8197,-5.8194,-5.824,-5.8244,-5.8249,0,0,0,0,0,0,0,0,0,0,0,0,0,-5.809,-5.8094,-5.8273,-5.8274,-5.8274,-5.8318,-5.8318,-5.8319,-5.8205,-5.8201,-5.8196,-5.8192,-5.8238,-5.8244,-5.8249,0,0,0,0,0,0,0,0,0,0,0,0,0,-5.8156,-5.8096,-5.8273,-5.8223,-5.8219,-5.8317,-5.8318,-5.8319,-5.8206,-5.8201,-5.8195,-5.819,-5.8236,-5.8243,-5.825,-5.8399,0,0,-5.8271,-5.8274,0,0,0,0,0,0,0,0,-5.8152,-5.8163,-5.823,-5.8226,-5.8222,-5.825,-5.827,-5.8346,-5.8207,-5.8211,-5.8194,-5.8188,-5.8247,-5.8253,-5.8273,-5.8401,-5.8403,-5.8271,-5.8275,-5.8278,-5.828,0,0,0,0,0,0,0,-5.8148,-5.816,-5.8291,-5.8231,-5.8226,-5.8198,-5.8201,-5.8284,-5.8259,-5.821,-5.8202,-5.8209,-5.8244,-5.8267,-5.8273,-5.8404,-5.8271,-5.8277,-5.8281,-5.8284,-5.8658,-5.8663,0,0,0,0,0,0,-5.815,-5.8157,-5.8289,-5.8292,-5.8173,-5.8206,-5.821,-5.8246,-5.8257,-5.8254,-5.8213,-5.8203,-5.8258,-5.8266,-5.8275,-5.845,-5.8278,-5.8285,-5.8289,-5.8652,-5.8659,-5.8665,0,0,0,0,0,0,-5.8146,-5.8163,-5.8287,-5.8222,-5.8236,-5.8215,-5.8257,-5.825,-5.8272,-5.826,-5.8255,-5.8241,-5.8254,-5.8265,-5.8369,-5.845,-5.8288,-5.8294,-5.8645,-5.8654,-5.8662,-5.8803,0,0,0,0,0,0,-5.8141,-5.8162,-5.8218,-5.8225,-5.824,-5.8382,-5.8262,-5.8255,-5.8285,-5.8272,-5.8284,-5.8281,-5.8251,-5.836,-5.8376,-5.8457,-5.8299,-5.8638,-5.8649,-5.8659,-5.8791,-5.8816,-5.8837,0,0,0,0,0,-5.8135,-5.8256,-5.8222,-5.8238,-5.831,-5.8386,-5.8395,-5.8357,-5.8292,-5.8348,-5.834,-5.8281,-5.8439,-5.8371,-5.8389,-5.8473,-5.8632,-5.8646,-5.8659,-5.8781,-5.8811,-5.8836,0,0,0,0,0,0,-5.826,-5.8256,-5.8218,-5.8344,-5.8367,-5.8367,-5.8437,-5.839,-5.8431,-5.8418,-5.8369,-5.8373,-5.8486,-5.849,-5.8414,-5.8618,-5.8524,-5.8542,-5.8612,-5.864,-5.8662,-5.8659,-5.8305,0,0,0,0,0,-5.8302,-5.8365,-5.8358,-5.847,-5.8483,-5.8459,-5.8491,-5.846,-5.8481,-5.8489,-5.8489,-5.8512,-5.8566,-5.8603,-5.8653,-5.8792,-5.8793,-5.8858,-5.8881,-5.89,-5.8915,-5.8989,-5.9018,-5.8708,-5.8708,-5.8708,0,0,-5.839,-5.8396,-5.8438,-5.8496,-5.8509,-5.8575,-5.8467,-5.8541,-5.859,-5.8501,-5.8599,-5.86,-5.8622,-5.8744,-5.8798,-5.8751,-5.9001,-5.8917,-5.8932,-5.8937,-5.9006,-5.9035,-5.9061,-5.8717,-5.8716,-5.8714,0,0,-5.8584,-5.8595,-5.8689,-5.8705,-5.8727,-5.871,-5.8734,-5.8742,-5.8739,-5.8837,-5.8771,-5.8828,-5.8924,-5.8942,-5.8964,-5.9167,-5.9114,-5.9184,-5.9303,-5.9376,-5.94,-5.9422,-5.9494,-5.952,-5.92,-5.92,-5.92,0,-5.869,-5.8786,-5.8744,-5.8823,-5.885,-5.8773,-5.8869,-5.8887,-5.8924,-5.8945,-5.8891,-5.901,-5.9019,-5.9145,-5.9195,-5.9215,-5.924,-5.9182,-5.94,-5.9421,-5.944,-5.9509,-5.9536,-5.9209,-5.9208,-5.9207,-5.9206,0,-5.8916,-5.8984,-5.9058,-5.9097,-5.9132,-5.922,-5.9191,-5.9232,-5.9198,-5.9187,-5.9289,-5.9298,-5.9348,-5.9376,-5.9343,-5.9497,-5.9467,-5.9408,-5.9312,-5.9479,-5.9542,-5.9568,-5.9221,-5.9218,-5.9215,-5.9213,0,0,-5.9188,-5.9203,-5.9231,-5.9248,-5.9267,-5.9319,-5.9403,-5.9452,-5.9489,-5.9518,-5.9587,-5.967,-5.9615,-5.9641,-5.961,-5.9674,-5.9834,-5.9606,-5.9606,-5.9648,-6.0005,-6.0049,-6.008,-5.98,-5.9804,-5.9808,-6.0003,0,-5.9379,-5.9523,-5.9488,-5.9631,-5.9693,-5.9622,-5.9695,-5.9715,-5.9707,-5.9759,-5.975,-5.981,-5.9734,-5.9748,-5.9809,-5.9802,-5.9905,-5.9787,-5.9864,-5.9867,-5.986,-6.0113,-6.016,-6.0343,-6.0027,-6.0031,-6.0034,0,-5.9621,-5.966,-5.9809,-5.9818,-5.9843,-5.991,-5.9952,-6.0003,-6.0025,-6.0015,-6.0044,-6.0001,-6.0084,-5.9989,-6.0103,-6.0024,-6.0054,-6.0055,-6.0061,-6.0066,-5.996,-6.0125,-6.04,-6.0427,-6.0073,-6.007,-6.0067,0,-5.9805,-5.9894,-5.9994,-6.0011,-6.0025,-6.0073,-6.0082,-6.0098,-6.013,-6.0168,-6.0188,-6.0236,-6.0261,-6.0299,-6.027,-6.0204,-6.039,-6.0292,-6.0384,-6.0385,-6.0425,-6.0423,-6.0709,-6.0446,-6.0445,-6.0445,-6.0444,0,-6.0021,-6.0115,-6.0077,-6.0139,-6.0243,-6.0202,-6.0305,-6.0305,-6.0321,-6.0381,-6.0323,-6.0381,-6.034,-6.0395,-6.0373,-6.0471,-6.0483,-6.0478,-6.0471,-6.0483,-6.0484,-6.0501,-6.0487,-6.0452,-6.045,-6.0449,-6.0448,0,-6.0243,-6.0221,-6.0326,-6.0332,-6.0335,-6.0411,-6.0415,-6.0473,-6.0462,-6.054,-6.0555,-6.0538,-6.06,-6.0575,-6.0641,-6.0626,-6.0752,-6.0728,-6.0744,-6.0738,-6.0831,-6.0823,-6.1138,-6.1177,-6.0889,-6.0892,-6.0894,0,-6.0382,-6.0453,-6.0466,-6.0503,-6.0515,-6.0575,-6.0607,-6.0571,-6.0607,-6.0638,-6.0692,-6.0749,-6.0792,-6.0895,-6.0888,-6.0938,-6.0915,-6.1022,-6.0922,-6.0933,-6.0917,-6.0913,-6.0919,-6.1042,-6.1046,-6.1048,-6.105,0,-6.0632,-6.0618,-6.0667,-6.0714,-6.0755,-6.079,-6.0819,-6.0853,-6.0817,-6.0861,-6.0924,-6.0958,-6.1025,-6.1083,-6.1128,-6.1136,-6.1088,-6.1082,-6.1106,-6.1119,-6.1125,-6.1123,-6.0798,-6.1075,-6.1072,-6.1071,-6.1069,-6.1068,-6.0816,-6.0876,-6.0895,-6.0952,-6.097,-6.1,-6.1054,-6.105,-6.1102,-6.1154,-6.1129,-6.1202,-6.1223,-6.1278,-6.1293,-6.135,-6.1308,-6.1343,-6.1352,-6.1361,-6.1373,-6.1117,-6.1358,-6.1358,-6.1357,-6.1356,-6.1356,0,-6.1062,-6.1071,-6.1124,-6.1168,-6.1213,-6.1164,-6.1195,-6.1236,-6.1301,-6.1324,-6.1369,-6.1441,-6.1497,-6.1495,-6.1547,-6.1593,-6.1572,-6.1608,-6.1603,-6.1606,-6.1407,-6.1381,-6.1624,-6.1624,-6.1624,-6.1623,-6.1623,-6.1623,-6.1195,-6.1294,-6.1283,-6.139,-6.1398,-6.1469,-6.1491,-6.1518,-6.1536,-6.162,-6.1666,-6.1664,-6.1678,-6.173,-6.1779,-6.1777,-6.1799,-6.1843,-6.1833,-6.1647,-6.162,-6.1595,-6.157,-6.1848,-6.1848,-6.2027,-6.2028,-6.203]},{"header":{"parameterUnit":"m.s-1","parameterCategory":1,"la1":30.2991,"la2":30.254,"lo1":-89.0895,"lo2":-89.0444,"dy":0.0017,"dx":0.0017,"nx":28,"ny":28,"refTime":"2024-10-16T21:00:00:Z","depth":0,"parameterNumber":3,"parameterNumberName":"V-component_of_WINDS"},"data":[0,0,0,0,0,0,0,0,0,0,0,0,0,0,0,0,0,0,0,0,0,0,0,0,0,0,0,0,0,0,0,0,0,0,0,0,0,0,0,0,0,0,0,0,0,0,0,0,0,0,0,0,0,0,0,0,0,0,-1.3209,-1.3208,0,-1.318,-1.3179,-1.3179,-1.3162,-1.3162,-1.3161,-1.3161,-1.3132,-1.3131,-1.3131,0,0,0,0,0,0,0,0,0,0,0,0,0,-1.3247,-1.3247,-1.3209,-1.3208,-1.3208,-1.318,-1.3179,-1.3179,-1.3162,-1.3162,-1.3161,-1.3161,-1.3132,-1.3131,-1.3131,0,0,0,0,0,0,0,0,0,0,0,0,0,-1.3226,-1.3246,-1.3209,-1.3196,-1.3194,-1.318,-1.3179,-1.3179,-1.3162,-1.3162,-1.3161,-1.3161,-1.3133,-1.3132,-1.313,-1.3127,0,0,-1.3127,-1.3127,0,0,0,0,0,0,0,0,-1.3227,-1.3224,-1.3198,-1.3197,-1.3195,-1.3174,-1.3182,-1.3161,-1.3162,-1.3174,-1.3161,-1.3161,-1.3146,-1.3144,-1.3139,-1.3125,-1.3124,-1.3127,-1.3127,-1.3126,-1.3126,0,0,0,0,0,0,0,-1.3228,-1.3225,-1.3197,-1.3198,-1.3196,-1.3191,-1.3188,-1.3178,-1.3161,-1.3173,-1.3172,-1.3169,-1.3145,-1.314,-1.3138,-1.3123,-1.3127,-1.3126,-1.3126,-1.3125,-1.3102,-1.3102,0,0,0,0,0,0,-1.3232,-1.3227,-1.3198,-1.3196,-1.3211,-1.319,-1.3187,-1.3181,-1.3161,-1.3158,-1.3169,-1.3168,-1.3142,-1.3139,-1.3137,-1.3129,-1.3126,-1.3125,-1.3124,-1.3102,-1.3102,-1.3102,0,0,0,0,0,0,-1.3233,-1.323,-1.3199,-1.3211,-1.3207,-1.319,-1.3184,-1.3181,-1.3175,-1.3158,-1.3155,-1.3166,-1.3142,-1.3138,-1.3129,-1.3128,-1.3125,-1.3124,-1.3102,-1.3102,-1.3102,-1.3115,0,0,0,0,0,0,-1.3234,-1.323,-1.3229,-1.3211,-1.3206,-1.3192,-1.3184,-1.318,-1.3173,-1.3172,-1.3155,-1.3152,-1.3141,-1.313,-1.3128,-1.3127,-1.3123,-1.3102,-1.3102,-1.3102,-1.3115,-1.3116,-1.3117,0,0,0,0,0,-1.3236,-1.3234,-1.3229,-1.3226,-1.3205,-1.3192,-1.3189,-1.3177,-1.3173,-1.3172,-1.316,-1.3153,-1.3129,-1.3129,-1.3126,-1.3125,-1.3102,-1.3102,-1.3102,-1.3114,-1.3116,-1.3116,0,0,0,0,0,0,-1.3253,-1.3232,-1.3226,-1.3219,-1.3207,-1.3189,-1.3187,-1.3179,-1.3168,-1.3167,-1.3152,-1.3149,-1.314,-1.3132,-1.3133,-1.3119,-1.3114,-1.3114,-1.3125,-1.3126,-1.3126,-1.3128,-1.3122,0,0,0,0,0,-1.3256,-1.3248,-1.323,-1.3225,-1.322,-1.3204,-1.3198,-1.3189,-1.3177,-1.3172,-1.316,-1.3148,-1.3138,-1.3131,-1.3121,-1.3113,-1.3109,-1.3111,-1.3112,-1.3112,-1.3112,-1.3105,-1.3106,-1.3103,-1.3103,-1.3103,0,0,-1.3262,-1.325,-1.3246,-1.3228,-1.3218,-1.3209,-1.32,-1.3192,-1.3185,-1.3171,-1.316,-1.3151,-1.3137,-1.3127,-1.3123,-1.312,-1.3112,-1.3112,-1.3113,-1.3112,-1.3105,-1.3106,-1.3106,-1.3103,-1.3103,-1.3103,0,0,-1.3269,-1.3259,-1.3253,-1.3243,-1.3228,-1.3217,-1.3216,-1.3198,-1.3191,-1.318,-1.3169,-1.316,-1.3143,-1.3133,-1.3125,-1.3125,-1.3117,-1.3122,-1.3126,-1.312,-1.312,-1.312,-1.3119,-1.3119,-1.3122,-1.3122,-1.3122,0,-1.3278,-1.3265,-1.3251,-1.3243,-1.3235,-1.3221,-1.3214,-1.3205,-1.3187,-1.3182,-1.3179,-1.3156,-1.3145,-1.3132,-1.3132,-1.3127,-1.3124,-1.3124,-1.3121,-1.3121,-1.3121,-1.312,-1.3119,-1.3122,-1.3122,-1.3122,-1.3122,0,-1.3277,-1.3267,-1.3264,-1.3246,-1.3238,-1.3231,-1.3215,-1.3208,-1.32,-1.3189,-1.3177,-1.3164,-1.3149,-1.3146,-1.3138,-1.3131,-1.313,-1.3124,-1.312,-1.3122,-1.3121,-1.312,-1.3123,-1.3123,-1.3123,-1.3123,0,0,-1.3294,-1.3268,-1.3267,-1.3257,-1.3239,-1.3231,-1.3222,-1.3207,-1.3201,-1.3189,-1.318,-1.3165,-1.3159,-1.3151,-1.3141,-1.3136,-1.3134,-1.3131,-1.313,-1.3131,-1.3124,-1.3128,-1.3127,-1.3129,-1.3129,-1.3129,-1.3125,0,-1.3297,-1.3281,-1.3267,-1.3255,-1.3245,-1.3231,-1.3223,-1.321,-1.32,-1.3189,-1.3177,-1.3166,-1.316,-1.3155,-1.3149,-1.3136,-1.3133,-1.3136,-1.312,-1.3119,-1.3123,-1.3127,-1.3131,-1.3128,-1.3124,-1.3124,-1.3124,0,-1.3299,-1.3286,-1.3273,-1.3253,-1.3248,-1.3242,-1.3226,-1.3217,-1.3201,-1.3193,-1.3183,-1.3172,-1.3161,-1.3157,-1.3141,-1.3143,-1.3136,-1.3128,-1.3128,-1.3125,-1.3122,-1.3123,-1.3127,-1.3126,-1.3123,-1.3123,-1.3123,0,-1.3311,-1.3291,-1.328,-1.3272,-1.325,-1.3245,-1.3235,-1.3219,-1.321,-1.3197,-1.3191,-1.3176,-1.3168,-1.3156,-1.3142,-1.3141,-1.3126,-1.3122,-1.3119,-1.3119,-1.3116,-1.3117,-1.3118,-1.3113,-1.3113,-1.3113,-1.3113,0,-1.3315,-1.3307,-1.3285,-1.3278,-1.3268,-1.3252,-1.3243,-1.3232,-1.3217,-1.3208,-1.3195,-1.3185,-1.3167,-1.3156,-1.3144,-1.3131,-1.3128,-1.3121,-1.3118,-1.3122,-1.3122,-1.3116,-1.3116,-1.3113,-1.3113,-1.3113,-1.3113,0,-1.3327,-1.3312,-1.3299,-1.3278,-1.3272,-1.3266,-1.3247,-1.3239,-1.3227,-1.3215,-1.3211,-1.3192,-1.3177,-1.3162,-1.3142,-1.3134,-1.3122,-1.3118,-1.3127,-1.3125,-1.3122,-1.3122,-1.3119,-1.3117,-1.3114,-1.3114,-1.3114,0,-1.3331,-1.3324,-1.3302,-1.3294,-1.3284,-1.3272,-1.3263,-1.3246,-1.3237,-1.3218,-1.3212,-1.3196,-1.3183,-1.316,-1.3144,-1.3128,-1.3124,-1.3123,-1.3121,-1.3124,-1.3122,-1.3122,-1.3121,-1.3124,-1.3124,-1.3124,-1.3124,0,-1.3338,-1.333,-1.3317,-1.3301,-1.329,-1.3277,-1.3263,-1.3257,-1.3238,-1.3228,-1.3212,-1.3202,-1.3181,-1.3165,-1.3147,-1.3136,-1.3127,-1.3125,-1.3123,-1.3127,-1.3132,-1.3128,-1.3128,-1.3125,-1.3125,-1.3125,-1.3125,-1.3125,-1.3345,-1.3337,-1.332,-1.3306,-1.3293,-1.328,-1.3271,-1.3257,-1.3244,-1.3226,-1.3217,-1.3201,-1.3183,-1.3158,-1.3147,-1.3134,-1.3131,-1.3129,-1.3129,-1.3128,-1.3128,-1.3134,-1.3131,-1.3131,-1.3131,-1.3131,-1.3131,0,-1.335,-1.3337,-1.3324,-1.3305,-1.3293,-1.3285,-1.3268,-1.3259,-1.3245,-1.323,-1.3216,-1.3197,-1.3181,-1.3164,-1.3146,-1.3139,-1.3134,-1.3135,-1.3135,-1.3132,-1.3133,-1.3135,-1.3139,-1.3139,-1.3139,-1.3139,-1.3139,-1.3139,-1.3351,-1.3338,-1.3328,-1.3308,-1.3295,-1.3279,-1.3271,-1.3258,-1.3245,-1.3225,-1.3211,-1.32,-1.3183,-1.3164,-1.3148,-1.3143,-1.3137,-1.3139,-1.3133,-1.3133,-1.3133,-1.3132,-1.3134,-1.3138,-1.3138,-1.3133,-1.3133,-1.3133]}]]